User: anonymous   Login
Location: Braunsdorf
(50.7357°N, 11.9136°E)
Time: 19:51:35
(UTC+00:00)
Language:

SL-16 R/B - Orbit

View from above orbital plane
View from above orbital plane
View from above satellite
View from above satellite

Ground track
Ground track

The orbit data is extracted from the following two-line orbital elements,

1 28353U 04021B   21169.59116947 -.00000227  00000-0 -93747-4 0  9996
2 28353  71.0018 251.4237 0003789 167.6028 192.5189 14.14247084878903
Epoch (UTC): 18 June 2021 14:11:17
Eccentricity: 0.0003789
inclination: 71.0018°
perigee height: 842 km
apogee height: 847 km
right ascension of ascending node: 251.4237°
argument of perigee: 167.6028°
revolutions per day: 14.14247084
mean anomaly at epoch: 192.5189°
orbit number at epoch: 87890

The dashed part of the orbit path shows where the satellite is in the earth's shadow,  

DLR